Home > Weather > Broome > Past weeks

Flag for Australia Weather for the Past 2 Weeks in Broome, Western Australia, Australia

Now
86 °F

Clear.


Feels Like: 93 °F
Forecast: 80 / 90 °F
Wind: 10 mph from Southwest

Location: Broome Airport

Current Time: Apr 29, 2016 at 6:42:54 PM

Latest Report: Apr 29, 2016 at 6:00 PM


Visibility: N/A

Pressure: 29.86 "Hg

Humidity: 66%

Dew Point: 73 °F

Location of BroomeLocation

Historic Weather in Broome — Graph

°F

Broome Temperature Yesterday

Maximum temperature yesterday: 90 °F (at 11:00 AM)
Minimum temperature yesterday: 70 °F (at 3:30 AM)
Average temperature yesterday: 81 °F

High & Low Weather Summary for the Past Weeks

 TemperatureHumidityPressure
High104 °F (Apr 23, 1:30 PM)100% (Apr 26, 5:00 AM)29.95 "Hg (Apr 26, 5:00 AM)
Low68 °F (Apr 26, 5:00 AM)7% (Apr 25, 1:00 PM)29.71 "Hg (Apr 18, 3:30 PM)
Average86 °F62%29.86 "Hg
* Reported Apr 14 5:00 PM — Apr 29 5:00 PM, Broome, Weather by CustomWeather, © 2016

Note: Actual official high and low records may vary slightly from our data, if they occured in-between our weather recording intervals... More about our weather records

Advertising

Broome Weather History for the Previous 24 Hours

Scroll right to see more
 ConditionsComfort  
Time TempWeatherWind HumidityBarometerVisibility
5:00 PM
Fri, Apr 29
88 °FSunny.10 mph62%29.83 "Hg10 mi
4:00 PM88 °FSunny.14 mph59%29.83 "Hg10 mi
3:30 PM90 °FSunny.14 mph55%29.83 "Hg10 mi
3:00 PM90 °FSunny.14 mph55%29.83 "Hg10 mi
2:30 PM90 °FSunny.14 mph55%29.83 "Hg10 mi
2:00 PM90 °FSunny.13 mph55%29.83 "Hg10 mi
1:00 PM91 °FSunny.14 mph56%29.83 "Hg10 mi
12:00 PM91 °FPassing clouds.13 mph52%29.83 "HgN/A
11:00 AM90 °FSunny.12 mph55%29.86 "Hg10 mi
10:30 AM90 °FSunny.10 mph55%29.89 "Hg10 mi
10:00 AM90 °FSunny.10 mph59%29.89 "Hg10 mi
9:30 AM90 °FSunny.10 mph55%29.89 "Hg10 mi
9:00 AM90 °FSunny.10 mph55%29.89 "Hg10 mi
8:00 AM88 °FSunny.9 mph62%29.86 "Hg10 mi
7:00 AM75 °FSunny.No wind83%29.86 "HgN/A
6:00 AM72 °FClear.No wind88%29.86 "HgN/A
5:00 AM73 °FClear.2 mph83%29.83 "HgN/A
4:30 AM73 °FClear.No wind83%29.83 "HgN/A
4:00 AM72 °FClear.No wind88%29.83 "HgN/A
3:30 AM73 °FClear.3 mph83%29.83 "HgN/A
3:00 AM73 °FClear.No wind89%29.83 "HgN/A
2:30 AM75 °FClear.3 mph78%29.83 "HgN/A
2:00 AM82 °FClear.5 mph70%29.83 "HgN/A
1:30 AM82 °FClear.6 mph70%29.83 "HgN/A
1:00 AM82 °FClear.6 mph70%29.83 "HgN/A
12:30 AM82 °FClear.6 mph66%29.83 "HgN/A
12:00 AM82 °FClear.6 mph66%29.86 "HgN/A
11:30 PM
Thu, Apr 28
82 °FPassing clouds.6 mph66%29.86 "HgN/A
11:00 PM84 °FPassing clouds.6 mph62%29.86 "HgN/A
10:30 PM82 °FPassing clouds.6 mph66%29.86 "HgN/A
10:00 PM82 °FClear.3 mph66%29.86 "HgN/A
9:30 PM82 °FClear.5 mph70%29.86 "HgN/A
9:00 PM84 °FClear.5 mph62%29.86 "HgN/A
8:00 PM84 °FClear.7 mph66%29.86 "HgN/A
7:00 PM86 °FClear.8 mph59%29.83 "HgN/A
6:00 PM86 °FClear.9 mph62%29.83 "Hg10 mi
Weather by CustomWeather, © 2016

See weather overviewHow to use our weather pages